Frankfort, MI

12:49 AM EST on February 25, 2018 (GMT -0500)
Frankfort

Weather History for KFKS - October, 2012

Change the Weather History Date:

Saturday, October 13, 2012

  Actual Average (KMBL) Record (KMBL)
Temperature  
Mean Temperature 47 °F -  
Max Temperature 58 °F 59 °F 80 °F (1975)
Min Temperature 36 °F 42 °F 28 °F (1988)
Degree Days  
Heating Degree Days 18    
Moisture  
Dew Point 41 °F    
Average Humidity 80    
Maximum Humidity 91    
Minimum Humidity 49    
Precipitation  
Precipitation 0.00 in - - ()
Sea Level Pressure  
Sea Level Pressure 29.99 in    
Wind  
Wind Speed 6 mph (SSE)    
Max Wind Speed 17 mph    
Max Gust Speed 22 mph    
Visibility 7 miles    
Events Rain    
Averages and records for this station are not official NWS values.
T = Trace of Precipitation, MM = Missing Value Source: NWS Daily Summary

Daily Weather History Graph

Daily Weather History Graph

Search for Another Location

Airport or City:

Trip Planner

Search our weather history database for the weather conditions in past years. The results will help you decide how hot, cold, wet, or windy it might be!

Date:

Astronomy

Oct. 13, 2012 Rise Set
Actual Time 7:58 AM EDT 7:02 PM EDT
Civil Twilight 7:28 AM EDT 7:32 PM EDT
Nautical Twilight 6:55 AM EDT 8:05 PM EDT
Astronomical Twilight 6:21 AM EDT 8:39 PM EDT
Moon 5:43 AM EDT (10/13) 5:48 PM EDT (10/13)
Length of Visible Light 12h 03m
Length of Day
11h 04m
Waning Crescent, 5% of the Moon is Illuminated
Oct 13
Waning Crescent
Oct 15
New
Oct 21
First Quarter
Oct 29
Full
Nov 6
Last Quarter

Hourly Weather History & Observations

Time (EDT) Temp. Windchill Dew Point Humidity Pressure Visibility Wind Dir Wind Speed Gust Speed Precip Events Conditions
12:12 AM 41.2 °F - 33.6 °F 74% 30.30 in 10.0 mi Calm Calm - N/A   Clear
12:32 AM 40.5 °F 38.4 °F 33.1 °F 75% 30.29 in 10.0 mi SE 3.5 mph - N/A   Clear
12:52 AM 41.2 °F - 32.9 °F 72% 30.28 in 10.0 mi Calm Calm - N/A   Clear
1:12 AM 39.7 °F - 32.9 °F 77% 30.28 in 10.0 mi Calm Calm - N/A   Clear
2:33 AM 36.0 °F - 31.3 °F 83% 30.25 in 10.0 mi Calm Calm - N/A   Mostly Cloudy
2:53 AM 41.0 °F 36.4 °F 30.0 °F 65% 30.25 in 10.0 mi SE 6.9 mph - N/A   Overcast
3:14 AM 42.1 °F 37.7 °F 28.9 °F 60% 30.24 in 10.0 mi SE 6.9 mph - N/A   Scattered Clouds
3:34 AM 42.8 °F 38.6 °F 28.4 °F 57% 30.23 in 10.0 mi SE 6.9 mph - N/A   Scattered Clouds
3:54 AM 43.3 °F 38.1 °F 27.5 °F 54% 30.22 in 10.0 mi SE 9.2 mph - N/A   Scattered Clouds
4:14 AM 43.3 °F 38.6 °F 26.8 °F 52% 30.21 in 10.0 mi SSE 8.1 mph - N/A   Scattered Clouds
4:34 AM 43.9 °F 38.8 °F 26.2 °F 50% 30.21 in 10.0 mi SSE 9.2 mph - N/A   Clear
4:55 AM 43.9 °F 38.3 °F 26.2 °F 50% 30.20 in 10.0 mi SE 10.4 mph - N/A   Clear
5:15 AM 43.9 °F 39.3 °F 26.1 °F 50% 30.20 in 10.0 mi SE 8.1 mph - N/A   Clear
5:35 AM 44.1 °F 39.0 °F 25.7 °F 49% 30.21 in 10.0 mi SE 9.2 mph - N/A   Clear
6:35 AM 42.6 °F 36.8 °F 31.8 °F 66% 30.18 in 10.0 mi SSE 10.4 mph - N/A Rain Rain
6:56 AM 41.4 °F 36.2 °F 33.8 °F 74% 30.18 in 10.0 mi SSE 8.1 mph - N/A Rain Light Rain
7:11 AM 41.2 °F 35.5 °F 34.2 °F 76% 30.18 in 10.0 mi SE 9.2 mph - N/A Rain Light Rain
7:31 AM 41.0 °F 34.7 °F 34.2 °F 77% 30.17 in 10.0 mi SE 10.4 mph - N/A Rain Light Rain
7:51 AM 41.4 °F 35.7 °F 34.7 °F 77% 30.17 in 10.0 mi SE 9.2 mph - N/A Rain Light Rain
8:11 AM 41.2 °F 34.1 °F 35.4 °F 80% 30.15 in 10.0 mi SE 12.7 mph - N/A Rain Light Rain
8:52 AM 41.4 °F 35.2 °F 36.7 °F 83% 30.14 in 7.0 mi SSE 10.4 mph - N/A Rain Rain
9:12 AM 41.2 °F 34.5 °F 37.0 °F 85% 30.12 in 7.0 mi SE 11.5 mph - N/A Rain Light Rain
9:32 AM 41.9 °F 35.9 °F 37.6 °F 85% 30.10 in 7.0 mi SE 10.4 mph - N/A Rain Light Rain
9:52 AM 42.6 °F 36.3 °F 38.3 °F 85% 30.09 in 10.0 mi SE 11.5 mph 18.4 mph N/A Rain Light Rain
10:53 AM 43.7 °F 37.7 °F 39.7 °F 86% 30.03 in 7.0 mi SE 11.5 mph 16.1 mph N/A Rain Light Rain
11:13 AM 43.9 °F 37.5 °F 40.3 °F 87% 30.00 in 3.0 mi SE 12.7 mph - N/A Rain Light Rain
12:13 PM 45.5 °F 38.3 °F 41.9 °F 87% 29.97 in 5.0 mi SSE 17.3 mph 21.9 mph N/A Rain Light Rain
12:33 PM 45.9 °F 41.2 °F 42.3 °F 87% 29.96 in 5.0 mi SSE 9.2 mph - N/A Rain Light Rain
12:53 PM 46.4 °F 42.4 °F 42.8 °F 87% 29.95 in 5.0 mi SE 8.1 mph - N/A Rain Rain
1:14 PM 47.3 °F - 43.7 °F 87% 29.94 in 7.0 mi SSE 8.1 mph - N/A Rain Rain
1:34 PM 48.0 °F - 44.4 °F 87% 29.92 in 5.0 mi SSE 6.9 mph - N/A Rain Rain
1:54 PM 48.9 °F - 45.1 °F 87% 29.89 in 5.0 mi South 10.4 mph 18.4 mph N/A Rain Rain
2:14 PM 50.0 °F - 45.9 °F 86% 29.88 in 10.0 mi South 11.5 mph 17.3 mph N/A Rain Rain
2:34 PM 50.0 °F - 46.0 °F 86% 29.86 in 5.0 mi SSE 10.4 mph 16.1 mph N/A Rain Rain
2:54 PM 50.7 °F - 46.6 °F 86% 29.84 in 10.0 mi South 10.4 mph 16.1 mph N/A Rain Light Rain
3:14 PM 50.9 °F - 46.8 °F 86% 29.84 in 5.0 mi SSE 9.2 mph - N/A Rain Rain
3:35 PM 50.7 °F - 46.8 °F 86% 29.84 in 4.0 mi SSE 5.8 mph - N/A Rain Heavy Rain
3:55 PM 50.9 °F - 46.9 °F 86% 29.83 in 5.0 mi South 8.1 mph - N/A Rain Rain
4:35 PM 51.8 °F - 47.8 °F 86% 29.82 in 4.0 mi South 9.2 mph - N/A Rain Rain
4:55 PM 52.0 °F - 48.4 °F 88% 29.80 in 10.0 mi South 9.2 mph - N/A Rain Light Rain
5:15 PM 52.7 °F - 48.7 °F 86% 29.79 in 10.0 mi SSE 9.2 mph 20.7 mph N/A Rain Light Rain
5:35 PM 52.9 °F - 49.3 °F 88% 29.79 in 5.0 mi SSE 8.1 mph 18.4 mph N/A Rain Light Rain
6:31 PM 53.8 °F - 50.2 °F 88% 29.78 in 7.0 mi South 8.1 mph - N/A Rain Light Rain
6:51 PM 54.0 °F - 50.5 °F 88% 29.77 in 5.0 mi South 8.1 mph - N/A Rain Rain
7:11 PM 54.3 °F - 50.9 °F 88% 29.77 in 7.0 mi SSE 8.1 mph - N/A Rain Rain
7:31 PM 54.5 °F - 51.1 °F 88% 29.77 in 5.0 mi Calm Calm - N/A Rain Rain
7:51 PM 54.5 °F - 51.3 °F 89% 29.77 in 5.0 mi Calm Calm - N/A Rain Rain
8:11 PM 54.9 °F - 51.8 °F 89% 29.77 in 5.0 mi SSE 8.1 mph - N/A Rain Rain
8:32 PM 56.8 °F - 53.6 °F 89% 29.76 in 4.0 mi South 10.4 mph - N/A Rain Light Rain
8:52 PM 57.4 °F - 54.1 °F 89% 29.77 in 3.0 mi SSW 6.9 mph - N/A Rain Rain
9:12 PM 57.4 °F - 54.1 °F 89% 29.77 in 3.0 mi SSW 9.2 mph 16.1 mph N/A Rain Heavy Rain
9:32 PM 57.2 °F - 54.0 °F 89% 29.78 in 4.0 mi SSW 5.8 mph - N/A Rain Rain
10:32 PM 58.5 °F - 55.6 °F 90% 29.77 in 3.0 mi SSW 9.2 mph - N/A Rain Rain
10:52 PM 58.5 °F - 55.6 °F 90% 29.77 in 2.5 mi SW 6.9 mph - N/A   Light Drizzle
11:13 PM 58.3 °F - 55.6 °F 91% 29.76 in 3.0 mi SW 4.6 mph - N/A   Overcast
11:53 PM 58.5 °F - 55.8 °F 91% 29.77 in 1.2 mi SW 3.5 mph - N/A   Overcast